[Date Prev][Date Next][Thread Prev][Thread Next] - [Date Index][Thread Index][Author Index]

2 Line ISS Keps 3-8



ISS
1 25544U 98067A   04068.33943816  .00012979  00000-0  12653-3 0  3335
2 25544  51.6288 119.3303 0011009 250.3556 161.5582 15.66552513302494


----
Via the sarex mailing list at AMSAT.ORG courtesy of AMSAT-NA.
To unsubscribe, send "unsubscribe sarex" to Majordomo@amsat.org



AMSAT Top AMSAT Home